Skip Page Navigation
NASA JPL Caltech
NASA Logo - Jet Propulsion Laboratory + View the NASA Portal
+ Center for Near-Earth Object Studies
JPL Home Earth Solar System Stars & Galaxies Technology
JPL Solar System Dynamics
BODIES ORBITS EPHEMERIDES TOOLS PHYSICAL DATA DISCOVERY FAQ SITE MAP
JPL Small-Body Database Browser
Search: [ help ]  
332735 (2009 SX334)
Classification: Main-belt Asteroid          SPK-ID: 2332735
Ephemeris | Orbit Diagram | Orbital Elements | Mission Design | Physical Parameters | Discovery Circumstances ]

[ show orbit diagram ]
Orbital Elements at Epoch 2459000.5 (2020-May-31.0) TDB
Reference: JPL 14 (heliocentric ecliptic J2000)
 Element Value Uncertainty (1-sigma)   Units 
e .03459229249318607 7.5831e-08  
a 2.787211433361566 4.7141e-08 au
q 2.69079540021837 2.2023e-07 au
i 9.852064546555729 8.3755e-06 deg
node 39.72339487163782 3.6614e-05 deg
peri 25.62816659473509 0.00013281 deg
M 54.86025773460778 0.00012521 deg
tp 2458741.494705447937
(2019-Sep-14.99470545)
0.00058995 TDB
period 1699.625737994345
4.65
4.312e-05
1.181e-07
d
yr
n .211811337021067 5.3737e-09 deg/d
Q 2.883627466504762 4.8772e-08 au
  Orbit Determination Parameters
   # obs. used (total)      201  
   data-arc span      9306 days (25.48 yr)  
   first obs. used      1993-03-19  
   last obs. used      2018-09-10  
   planetary ephem.      DE431  
   SB-pert. ephem.      SB431-N16  
   condition code      0  
   norm. resid. RMS      .5946  
   source      ORB  
   producer      Otto Matic  
   solution date      2019-Jul-14 13:11:20  

Additional Information
 Earth MOID = 1.70538 au 
 Jupiter MOID = 2.23628 au 
 T_jup = 3.308 
[ show covariance matrix ]

Ephemeris | Orbit Diagram | Orbital Elements | Mission Design | Physical Parameters | Discovery Circumstances ]

Physical Parameter Table
Parameter Symbol Value Units Sigma Reference Notes
absolute magnitude H 15.9   n/a MPO413327  

332735 (2009 SX334)          Discovered 2007-Apr-11 by Spacewatch at Kitt Peak
Reference: 20120703/Numbers.arcLast Updated: 2012-07-09
Ephemeris | Orbit Diagram | Orbital Elements | Mission Design | Physical Parameters | Discovery Circumstances ]
ABOUT SSD CREDITS/AWARDS PRIVACY/COPYRIGHT GLOSSARY LINKS
FirstGov 2020-Sep-18 21:38 UT
(server date/time)  
NASA Home Page
Site Manager:   Ryan S. Park
Webmaster  Alan B. Chamberlin